Flag for U.S.A. Weather past 2 weeks in Sarasota, Florida, U.S.A.

Now
67 °F

Overcast.


Feels Like: 67 °F
Forecast: 57 / 74 °F
Wind: 8 mph from North

Location: Sarasota-Bradenton International Airport

Current Time: Mar 6, 2015 at 8:53:12 PM

Latest Report: Mar 6, 2015 at 7:53 PM


Visibility: 10 mi

Pressure: 30.21 "Hg

Humidity: 81%

Dew point: 61 °F

Location of SarasotaLocation

Historic Weather in Sarasota — Graph

°F

Sarasota temperature yesterday

Maximum temperature yesterday: 81 °F (at 12:53 PM)
Minimum temperature yesterday: 63 °F (at 4:53 AM)
Average temperature yesterday: 71 °F

Past Weeks' High & Low Weather Summary

 TemperatureHumidityPressure
High82 °F (Mar 1, 1:53 PM)100% (Feb 22, 11:53 PM)30.40 "Hg (Feb 22, 11:53 PM)
Low33 °F (Feb 20, 6:53 AM)16% (Feb 20, 2:53 PM)29.72 "Hg (Feb 26, 2:53 AM)
Average65 °F82%30.14 "Hg
* Reported Feb 19 6:53 PM — Mar 6 6:53 PM, Sarasota, Weather by CustomWeather, © 2015

Note: Actual official high and low records may vary slightly from our data, if they occured in-between our weather recording intervals... More about our weather records

Advertising

Sarasota weather history for previous 24 hours

 ConditionsComfort  
Time TempWeatherWind HumidityBarometerVisibility
6:53 PM
Fri, Mar 6
69 °FMostly cloudy.13 mph81%30.18 "Hg10 mi
5:53 PM72 °FOvercast.8 mph81%30.17 "Hg10 mi
4:53 PM73 °FOvercast.9 mph81%30.16 "Hg10 mi
3:53 PM72 °FOvercast.10 mph84%30.15 "Hg10 mi
2:53 PM73 °FScattered clouds.10 mph81%30.15 "Hg10 mi
1:53 PM75 °FSunny.10 mph76%30.16 "Hg10 mi
12:53 PM75 °FScattered clouds.10 mph76%30.19 "Hg10 mi
12:00 PM75 °FSunny.10 mph79%30.20 "Hg10 mi
10:53 AM74 °FPartly sunny.9 mph79%30.20 "Hg10 mi
9:53 AM74 °FScattered clouds.3 mph79%30.19 "Hg10 mi
8:53 AM71 °FOvercast.5 mph90%30.19 "Hg10 mi
7:53 AM69 °FBroken clouds.No wind96%30.16 "Hg8 mi
6:53 AM68 °FFog.No wind100%30.15 "Hg4 mi
5:53 AM68 °FFog.No wind100%30.14 "Hg4 mi
5:01 AM68 °FFog.No wind100%30.12 "Hg1 mi
3:53 AM68 °FFog.3 mph100%30.10 "Hg0 mi
2:53 AM68 °FFog.No wind100%30.11 "Hg0 mi
2:00 AM68 °FFog.No wind100%30.12 "Hg2 mi
1:04 AM69 °FFog.3 mph100%30.13 "Hg1 mi
12:53 AM70 °FFog.3 mph100%30.12 "Hg1 mi
11:53 PM
Thu, Mar 5
71 °FFog.8 mph96%30.14 "Hg6 mi
10:53 PM70 °FPassing clouds.3 mph100%30.14 "Hg9 mi
9:53 PM71 °FClear.5 mph96%30.14 "Hg10 mi
8:53 PM71 °FClear.3 mph96%30.13 "Hg10 mi
Weather by CustomWeather, © 2015

See weather overviewHow to use our weather pages